This is the latest recevied weather packets stored in our database for station/object W7TRD. If no packets are shown the sender has not sent any weather packets the latest 10 day(s).
| Time | Temp. | Humidity | Pressure | Rain* | Wind** | Luminosity | Snow |
|---|---|---|---|---|---|---|---|
| 1777845827 | 33.89° C | 30% | 1009.6 hPa | 0 mm | - | 641 W/m² | - |
| 1777845524 | 33.89° C | 31% | 1009.7 hPa | 0 mm | - | 648 W/m² | - |
| 1777845221 | 33.33° C | 31% | 1009.7 hPa | 0 mm | - | 656 W/m² | - |
| 1777844919 | 33.33° C | 31% | 1009.8 hPa | 0 mm | - | 664 W/m² | - |
| 1777844616 | 33.89° C | 29% | 1009.9 hPa | 0 mm | - | 672 W/m² | - |
| 1777844313 | 33.33° C | 33% | 1009.9 hPa | 0 mm | - | 677 W/m² | - |
| 1777844011 | 33.33° C | 30% | 1009.9 hPa | 0 mm | - | 685 W/m² | - |
| 1777843708 | 33.33° C | 31% | 1010 hPa | 0 mm | - | 690 W/m² | - |
| 1777843406 | 32.78° C | 32% | 1010.1 hPa | 0 mm | - | 697 W/m² | - |
| 1777843103 | 33.33° C | 33% | 1010.1 hPa | 0 mm | - | 702 W/m² | - |
| 1777842799 | 32.78° C | 33% | 1010 hPa | 0 mm | - | 708 W/m² | - |
| 1777842499 | 32.78° C | 35% | 1010.3 hPa | 0 mm | - | 712 W/m² | - |
| 1777842197 | 32.78° C | 34% | 1010.4 hPa | 0 mm | - | 716 W/m² | - |
| 1777841892 | 32.78° C | 34% | 1010.3 hPa | 0 mm | - | 719 W/m² | - |
| 1777841589 | 32.22° C | 35% | 1010.3 hPa | 0 mm | - | 723 W/m² | - |
| 1777841285 | 31.67° C | 35% | 1010.4 hPa | 0 mm | - | 728 W/m² | - |
| 1777840983 | 31.67° C | 36% | 1010.6 hPa | 0 mm | - | 730 W/m² | - |
| 1777840680 | 32.22° C | 35% | 1010.7 hPa | 0 mm | - | 732 W/m² | - |
| 1777840377 | 32.22° C | 40% | 1010.6 hPa | 0 mm | - | 735 W/m² | - |
| 1777840074 | 31.11° C | 38% | 1010.8 hPa | 0 mm | - | 737 W/m² | - |
| 1777839772 | 30.56° C | 38% | 1010.8 hPa | 0 mm | - | 740 W/m² | - |
| 1777839470 | 30.56° C | 39% | 1011 hPa | 0 mm | - | 740 W/m² | - |
| 1777839167 | 30.56° C | 40% | 1010.8 hPa | 0 mm | - | 742 W/m² | - |
| 1777838864 | 30° C | 42% | 1011 hPa | 0 mm | - | 742 W/m² | - |
| 1777838560 | 30.56° C | 42% | 1011 hPa | 0 mm | - | 744 W/m² | - |
* Rain latest hour (hover to see other rain measurements)
** Current wind speed in m/s (hover to see current wind gust speed)